Time,TemperatureF,DewpointF,PressureIn,WindDirection,WindDirectionDegrees,WindSpeedMPH,WindSpeedGustMPH,Humidity,HourlyPrecipIn,Conditions,Clouds,dailyrainin,SolarRadiationWatts/m^2,SoftwareType,DateUTC
2017-05-27 00:04:00,54.0,53.2,29.79,NNE,32,2.0,2.5,97,0.00,,,0.00,0.00,Weather logger V3.0.,2017-05-27 04:04:00,
2017-05-27 00:09:00,54.0,53.2,29.79,South,170,0.0,0.0,97,0.00,,,0.00,0.00,Weather logger V3.0.,2017-05-27 04:09:00,
2017-05-27 00:15:00,54.0,53.2,29.79,ENE,66,0.0,0.0,97,0.00,,,0.00,0.00,Weather logger V3.0.,2017-05-27 04:15:00,
2017-05-27 00:20:00,54.0,53.2,29.78,East,87,0.0,0.0,97,0.00,,,0.00,0.00,Weather logger V3.0.,2017-05-27 04:20:00,
2017-05-27 00:26:00,53.8,53.1,29.79,NNW,334,0.9,2.5,97,0.00,,,0.00,0.00,Weather logger V3.0.,2017-05-27 04:26:00,
2017-05-27 00:31:00,53.8,53.1,29.79,ENE,68,0.0,0.0,97,0.00,,,0.00,0.00,Weather logger V3.0.,2017-05-27 04:31:00,
2017-05-27 00:36:00,53.8,53.1,29.79,ENE,62,0.9,2.5,97,0.00,,,0.00,0.00,Weather logger V3.0.,2017-05-27 04:36:00,
2017-05-27 00:41:00,53.8,53.1,29.79,ENE,72,0.0,0.0,97,0.00,,,0.00,0.00,Weather logger V3.0.,2017-05-27 04:41:00,
2017-05-27 00:46:00,53.8,53.1,29.78,NNE,15,1.8,2.5,97,0.00,,,0.00,0.00,Weather logger V3.0.,2017-05-27 04:46:00,
2017-05-27 00:51:00,53.6,52.9,29.78,NE,35,0.9,2.5,97,0.00,,,0.00,0.00,Weather logger V3.0.,2017-05-27 04:51:00,
2017-05-27 00:56:00,53.6,52.9,29.78,North,11,1.1,2.5,97,0.00,,,0.00,0.00,Weather logger V3.0.,2017-05-27 04:56:00,
2017-05-27 01:01:00,53.6,53.1,29.78,NNE,23,2.0,2.5,98,0.00,,,0.00,0.00,Weather logger V3.0.,2017-05-27 05:01:00,
2017-05-27 01:06:00,53.4,52.9,29.78,NNE,21,1.1,2.5,98,0.00,,,0.00,0.00,Weather logger V3.0.,2017-05-27 05:06:00,
2017-05-27 01:11:00,53.4,52.9,29.79,NNW,347,1.3,2.5,98,0.00,,,0.00,0.00,Weather logger V3.0.,2017-05-27 05:11:00,
2017-05-27 01:17:00,53.4,52.9,29.78,NNW,335,0.0,0.0,98,0.00,,,0.00,0.00,Weather logger V3.0.,2017-05-27 05:17:00,
2017-05-27 01:22:00,53.4,52.9,29.79,West,273,0.0,0.0,98,0.00,,,0.00,0.00,Weather logger V3.0.,2017-05-27 05:22:00,
2017-05-27 01:27:00,53.4,52.9,29.79,WNW,287,0.9,2.5,98,0.00,,,0.00,0.00,Weather logger V3.0.,2017-05-27 05:27:00,
2017-05-27 01:33:00,53.2,52.7,29.79,NW,324,0.0,0.0,98,0.00,,,0.00,0.00,Weather logger V3.0.,2017-05-27 05:33:00,
2017-05-27 01:38:00,53.1,52.5,29.79,NW,317,0.0,0.0,98,0.00,,,0.00,0.00,Weather logger V3.0.,2017-05-27 05:38:00,
2017-05-27 01:43:00,53.1,52.5,29.80,SW,231,1.8,2.5,98,0.00,,,0.00,0.00,Weather logger V3.0.,2017-05-27 05:43:00,
2017-05-27 01:48:00,52.9,52.3,29.80,SW,234,0.0,0.0,98,0.00,,,0.00,0.00,Weather logger V3.0.,2017-05-27 05:48:00,
2017-05-27 01:54:00,52.7,52.2,29.80,WSW,241,0.0,0.0,98,0.00,,,0.00,0.00,Weather logger V3.0.,2017-05-27 05:54:00,
2017-05-27 01:59:00,52.5,52.0,29.79,WSW,240,0.0,0.0,98,0.00,,,0.00,0.00,Weather logger V3.0.,2017-05-27 05:59:00,
2017-05-27 02:04:00,52.5,52.0,29.79,WSW,240,0.0,0.0,98,0.00,,,0.00,0.00,Weather logger V3.0.,2017-05-27 06:04:00,
2017-05-27 02:09:00,52.3,51.8,29.79,SSE,152,0.0,0.0,98,0.00,,,0.00,0.00,Weather logger V3.0.,2017-05-27 06:09:00,
2017-05-27 02:14:00,52.3,51.8,29.80,SE,139,0.0,0.0,98,0.00,,,0.00,0.00,Weather logger V3.0.,2017-05-27 06:14:00,
2017-05-27 02:20:00,52.3,51.8,29.80,ESE,106,0.0,0.0,98,0.00,,,0.00,0.00,Weather logger V3.0.,2017-05-27 06:20:00,
2017-05-27 02:25:00,52.3,51.8,29.79,ESE,104,0.0,0.0,98,0.00,,,0.00,0.00,Weather logger V3.0.,2017-05-27 06:25:00,
2017-05-27 02:38:00,52.3,51.8,-100.00,ESE,104,0.0,0.0,98,0.00,,,0.00,0.00,Weather logger V3.0.,2017-05-27 06:38:00,
2017-05-27 02:43:00,52.3,51.8,29.80,NNE,22,0.0,0.0,98,0.00,,,0.00,0.00,Weather logger V3.0.,2017-05-27 06:43:00,
2017-05-27 02:48:00,52.5,52.0,29.79,NNW,334,0.0,0.0,98,0.00,,,0.00,0.00,Weather logger V3.0.,2017-05-27 06:48:00,
2017-05-27 02:54:00,52.5,52.0,29.80,NNE,14,0.9,2.5,98,0.00,,,0.00,0.00,Weather logger V3.0.,2017-05-27 06:54:00,
2017-05-27 02:59:00,52.5,52.0,29.80,NNE,15,0.0,0.0,98,0.00,,,0.00,0.00,Weather logger V3.0.,2017-05-27 06:59:00,
2017-05-27 03:04:00,52.5,52.0,29.80,NNE,31,0.0,0.0,98,0.00,,,0.00,0.00,Weather logger V3.0.,2017-05-27 07:04:00,
2017-05-27 03:09:00,52.5,52.0,29.80,NNE,30,0.0,0.0,98,0.00,,,0.00,0.00,Weather logger V3.0.,2017-05-27 07:09:00,
2017-05-27 03:15:00,52.5,52.0,29.80,NNE,30,0.0,0.0,98,0.00,,,0.00,0.00,Weather logger V3.0.,2017-05-27 07:15:00,
2017-05-27 03:20:00,52.3,51.8,29.81,NW,322,0.0,0.0,98,0.00,,,0.00,0.00,Weather logger V3.0.,2017-05-27 07:20:00,
2017-05-27 03:26:00,52.3,51.8,29.80,WNW,285,0.0,0.0,98,0.00,,,0.00,0.00,Weather logger V3.0.,2017-05-27 07:26:00,
2017-05-27 03:31:00,52.5,52.0,29.81,NNE,16,0.0,0.0,98,0.00,,,0.00,0.00,Weather logger V3.0.,2017-05-27 07:31:00,
2017-05-27 03:36:00,52.3,51.8,29.81,NE,36,0.0,0.0,98,0.00,,,0.00,0.00,Weather logger V3.0.,2017-05-27 07:36:00,
2017-05-27 03:41:00,52.3,51.8,29.81,NE,36,0.0,0.0,98,0.00,,,0.00,0.00,Weather logger V3.0.,2017-05-27 07:41:00,
2017-05-27 03:46:00,52.3,51.8,29.81,East,86,1.3,2.5,98,0.00,,,0.00,0.00,Weather logger V3.0.,2017-05-27 07:46:00,
2017-05-27 03:51:00,52.3,51.8,29.80,NE,39,0.0,0.0,98,0.00,,,0.00,0.00,Weather logger V3.0.,2017-05-27 07:51:00,
2017-05-27 03:56:00,52.3,51.8,29.81,NNE,19,0.0,0.0,98,0.00,,,0.00,0.00,Weather logger V3.0.,2017-05-27 07:56:00,
2017-05-27 04:01:00,52.3,51.8,29.81,North,2,0.0,0.0,98,0.00,,,0.00,0.00,Weather logger V3.0.,2017-05-27 08:01:00,
2017-05-27 04:07:00,52.3,51.8,29.81,NNW,330,0.9,2.5,98,0.00,,,0.00,0.00,Weather logger V3.0.,2017-05-27 08:07:00,
2017-05-27 04:12:00,52.2,51.6,29.81,NNW,329,0.0,0.0,98,0.00,,,0.00,0.00,Weather logger V3.0.,2017-05-27 08:12:00,
2017-05-27 04:17:00,52.2,51.6,29.81,SW,227,0.9,2.5,98,0.00,,,0.00,0.00,Weather logger V3.0.,2017-05-27 08:17:00,
2017-05-27 04:22:00,52.2,51.6,29.82,SSW,211,0.0,0.0,98,0.00,,,0.00,0.00,Weather logger V3.0.,2017-05-27 08:22:00,
2017-05-27 04:27:00,52.2,51.6,29.82,SSW,199,0.0,0.0,98,0.00,,,0.00,0.00,Weather logger V3.0.,2017-05-27 08:27:00,
2017-05-27 04:32:00,52.0,51.8,29.82,SW,214,0.0,0.0,99,0.00,,,0.00,0.00,Weather logger V3.0.,2017-05-27 08:32:00,
2017-05-27 04:37:00,51.8,51.6,29.82,SW,214,0.0,0.0,99,0.00,,,0.00,0.00,Weather logger V3.0.,2017-05-27 08:37:00,
2017-05-27 04:43:00,51.8,51.6,29.83,SW,214,0.0,0.0,99,0.00,,,0.00,0.00,Weather logger V3.0.,2017-05-27 08:43:00,
2017-05-27 04:48:00,51.6,51.4,29.82,SW,214,0.0,0.0,99,0.00,,,0.00,0.00,Weather logger V3.0.,2017-05-27 08:48:00,
2017-05-27 04:53:00,51.6,51.4,29.83,SW,214,0.0,0.0,99,0.00,,,0.00,0.00,Weather logger V3.0.,2017-05-27 08:53:00,
2017-05-27 04:58:00,51.4,51.3,29.83,NNE,14,0.4,2.5,99,0.00,,,0.00,0.00,Weather logger V3.0.,2017-05-27 08:58:00,
2017-05-27 05:03:00,51.4,50.9,29.83,NNW,337,0.4,2.5,98,0.00,,,0.00,0.00,Weather logger V3.0.,2017-05-27 09:03:00,
2017-05-27 05:08:00,51.4,50.9,29.83,NNW,341,1.1,2.5,98,0.00,,,0.00,0.00,Weather logger V3.0.,2017-05-27 09:08:00,
2017-05-27 05:13:00,51.6,51.1,29.83,NW,326,3.4,4.9,98,0.00,,,0.00,0.60,Weather logger V3.0.,2017-05-27 09:13:00,
2017-05-27 05:19:00,51.6,51.1,29.83,NNW,340,1.1,2.5,98,0.00,,,0.00,1.80,Weather logger V3.0.,2017-05-27 09:19:00,
2017-05-27 05:24:00,51.6,51.1,29.83,WNW,282,1.3,2.5,98,0.00,,,0.00,3.55,Weather logger V3.0.,2017-05-27 09:24:00,
2017-05-27 05:29:00,51.8,51.3,29.84,WNW,287,0.4,2.5,98,0.00,,,0.00,5.41,Weather logger V3.0.,2017-05-27 09:29:00,
2017-05-27 05:33:00,51.8,51.3,29.83,WNW,291,1.8,2.5,98,0.00,,,0.00,7.29,Weather logger V3.0.,2017-05-27 09:33:00,
2017-05-27 05:38:00,51.8,51.3,29.84,NNW,341,0.0,0.0,98,0.00,,,0.00,9.09,Weather logger V3.0.,2017-05-27 09:38:00,
2017-05-27 05:44:00,52.0,51.4,29.84,WNW,285,1.8,2.5,98,0.00,,,0.00,17.75,Weather logger V3.0.,2017-05-27 09:44:00,
2017-05-27 05:49:00,52.0,51.4,29.85,North,349,3.6,4.9,98,0.00,,,0.00,28.83,Weather logger V3.0.,2017-05-27 09:49:00,
2017-05-27 05:54:00,52.0,51.4,29.84,North,350,4.0,4.9,98,0.00,,,0.00,35.79,Weather logger V3.0.,2017-05-27 09:54:00,
2017-05-27 05:59:00,52.0,51.4,29.85,NNW,339,2.7,4.9,98,0.00,,,0.00,55.29,Weather logger V3.0.,2017-05-27 09:59:00,
2017-05-27 06:04:00,52.2,51.6,29.85,North,7,2.5,2.5,98,0.00,,,0.00,65.43,Weather logger V3.0.,2017-05-27 10:04:00,
2017-05-27 06:09:00,52.2,51.6,29.85,WNW,290,2.7,4.9,98,0.00,,,0.00,62.59,Weather logger V3.0.,2017-05-27 10:09:00,
2017-05-27 06:15:00,52.3,51.8,29.85,WNW,290,5.1,7.4,98,0.00,,,0.00,81.39,Weather logger V3.0.,2017-05-27 10:15:00,
2017-05-27 06:20:00,52.3,51.8,29.85,NNE,20,3.6,4.9,98,0.00,,,0.00,63.76,Weather logger V3.0.,2017-05-27 10:20:00,
2017-05-27 06:25:00,52.3,51.6,29.85,North,8,4.2,4.9,97,0.00,,,0.00,65.48,Weather logger V3.0.,2017-05-27 10:25:00,
2017-05-27 06:30:00,52.3,50.9,29.86,NNW,330,3.4,4.9,95,0.00,,,0.00,92.09,Weather logger V3.0.,2017-05-27 10:30:00,
2017-05-27 06:36:00,52.5,51.1,29.85,NNW,345,1.8,2.5,95,0.00,,,0.00,109.76,Weather logger V3.0.,2017-05-27 10:36:00,
2017-05-27 06:41:00,52.5,50.5,29.85,NNW,347,1.3,2.5,93,0.00,,,0.00,97.78,Weather logger V3.0.,2017-05-27 10:41:00,
2017-05-27 06:46:00,52.5,50.4,29.85,NNW,338,2.9,4.9,92,0.00,,,0.00,102.82,Weather logger V3.0.,2017-05-27 10:46:00,
2017-05-27 07:01:00,52.5,50.0,-100.00,NW,326,2.7,4.9,91,-99.99,,,0.00,108.03,Weather logger V3.0.,2017-05-27 11:01:00,
2017-05-27 07:06:00,52.9,49.8,29.85,NNW,339,6.5,7.4,89,0.00,,,0.00,156.46,Weather logger V3.0.,2017-05-27 11:06:00,
2017-05-27 07:11:00,53.1,49.6,29.86,NNW,338,9.6,12.3,88,0.00,,,0.00,142.30,Weather logger V3.0.,2017-05-27 11:11:00,
2017-05-27 07:16:00,53.2,50.2,29.85,NNW,343,4.0,4.9,89,0.00,,,0.00,134.53,Weather logger V3.0.,2017-05-27 11:16:00,
2017-05-27 07:21:00,53.2,50.2,29.86,West,280,6.0,7.4,89,0.00,,,0.00,156.75,Weather logger V3.0.,2017-05-27 11:21:00,
2017-05-27 07:26:00,53.4,50.4,29.86,North,3,0.9,2.5,89,0.00,,,0.00,140.12,Weather logger V3.0.,2017-05-27 11:26:00,
2017-05-27 07:32:00,53.4,50.4,29.86,NW,320,2.9,4.9,89,0.00,,,0.00,133.97,Weather logger V3.0.,2017-05-27 11:32:00,
2017-05-27 07:37:00,53.4,50.0,29.86,North,359,5.1,7.4,88,0.00,,,0.00,188.56,Weather logger V3.0.,2017-05-27 11:37:00,
2017-05-27 07:38:00,53.4,50.0,29.85,NNW,335,3.6,4.9,88,0.00,,,0.00,157.79,Weather logger V3.0.,2017-05-27 11:38:00,
2017-05-27 07:43:00,53.6,49.5,29.86,NNW,338,4.2,4.9,86,0.00,,,0.00,170.17,Weather logger V3.0.,2017-05-27 11:43:00,
2017-05-27 07:49:00,53.6,49.3,29.86,NNW,340,2.9,4.9,85,0.00,,,0.00,208.32,Weather logger V3.0.,2017-05-27 11:49:00,
2017-05-27 07:54:00,53.8,49.1,29.86,NNE,25,6.5,7.4,84,0.00,,,0.00,215.06,Weather logger V3.0.,2017-05-27 11:54:00,
2017-05-27 07:59:00,54.1,49.1,29.86,North,355,5.6,7.4,83,0.00,,,0.00,227.04,Weather logger V3.0.,2017-05-27 11:59:00,
2017-05-27 08:00:00,54.1,48.7,29.85,North,5,7.4,12.3,82,0.00,,,0.00,228.72,Weather logger V3.0.,2017-05-27 12:00:00,
2017-05-27 08:05:00,54.7,48.9,29.86,NNE,17,8.3,9.8,81,0.00,,,0.00,227.67,Weather logger V3.0.,2017-05-27 12:05:00,
2017-05-27 08:10:00,55.0,49.1,29.87,NNW,331,6.5,9.8,80,0.00,,,0.00,203.15,Weather logger V3.0.,2017-05-27 12:10:00,
2017-05-27 08:16:00,55.2,48.6,29.87,NNE,19,9.8,12.3,78,0.00,,,0.00,260.43,Weather logger V3.0.,2017-05-27 12:16:00,
2017-05-27 08:21:00,55.6,48.9,29.86,NNW,341,4.9,4.9,78,0.00,,,0.00,293.58,Weather logger V3.0.,2017-05-27 12:21:00,
2017-05-27 08:27:00,55.8,48.7,29.86,NNW,348,8.3,9.8,77,0.00,,,0.00,342.61,Weather logger V3.0.,2017-05-27 12:27:00,
2017-05-27 08:32:00,55.9,49.3,29.86,NNW,341,7.6,9.8,78,0.00,,,0.00,229.80,Weather logger V3.0.,2017-05-27 12:32:00,
2017-05-27 08:38:00,55.9,49.3,29.87,ENE,74,4.5,7.4,78,0.00,,,0.00,168.59,Weather logger V3.0.,2017-05-27 12:38:00,
2017-05-27 08:43:00,56.1,49.1,29.86,NNE,30,8.3,9.8,77,0.00,,,0.00,337.68,Weather logger V3.0.,2017-05-27 12:43:00,
2017-05-27 08:48:00,56.1,49.1,29.86,NNE,13,6.5,7.4,77,0.00,,,0.00,341.88,Weather logger V3.0.,2017-05-27 12:48:00,
2017-05-27 08:54:00,56.3,48.9,29.86,NNE,14,8.7,9.8,76,0.00,,,0.00,347.09,Weather logger V3.0.,2017-05-27 12:54:00,
2017-05-27 09:00:00,56.7,48.9,29.86,North,0,8.9,12.3,75,0.00,,,0.00,369.09,Weather logger V3.0.,2017-05-27 13:00:00,
2017-05-27 09:05:00,57.0,47.7,29.87,NNE,20,6.0,7.4,71,0.00,,,0.00,378.57,Weather logger V3.0.,2017-05-27 13:05:00,
2017-05-27 09:10:00,57.4,48.0,29.86,NW,326,8.1,9.8,71,0.00,,,0.00,395.92,Weather logger V3.0.,2017-05-27 13:10:00,
2017-05-27 09:15:00,57.7,48.4,29.86,NNW,339,6.0,9.8,71,0.00,,,0.00,414.93,Weather logger V3.0.,2017-05-27 13:15:00,
2017-05-27 09:20:00,57.9,48.6,29.87,ENE,62,5.6,7.4,71,0.00,,,0.00,424.64,Weather logger V3.0.,2017-05-27 13:20:00,
2017-05-27 09:26:00,58.3,48.2,29.87,NNE,29,6.5,7.4,69,0.00,,,0.00,421.29,Weather logger V3.0.,2017-05-27 13:26:00,
2017-05-27 09:31:00,58.5,47.7,29.87,NNE,31,4.9,7.4,67,0.00,,,0.00,432.42,Weather logger V3.0.,2017-05-27 13:31:00,
2017-05-27 09:37:00,58.8,48.4,29.87,ENE,68,2.0,2.5,68,0.00,,,0.00,426.12,Weather logger V3.0.,2017-05-27 13:37:00,
2017-05-27 09:42:00,59.0,47.7,29.87,ENE,77,2.0,2.5,66,0.00,,,0.00,107.30,Weather logger V3.0.,2017-05-27 13:42:00,
2017-05-27 09:47:00,59.4,47.3,29.87,North,350,1.1,2.5,64,0.00,,,0.00,154.63,Weather logger V3.0.,2017-05-27 13:47:00,
2017-05-27 09:52:00,59.5,46.6,29.87,North,6,2.0,4.9,62,0.00,,,0.00,513.13,Weather logger V3.0.,2017-05-27 13:52:00,
2017-05-27 09:57:00,59.9,47.3,29.87,North,355,4.0,4.9,63,0.00,,,0.00,271.20,Weather logger V3.0.,2017-05-27 13:57:00,
2017-05-27 10:03:00,60.1,47.8,29.87,WNW,299,4.9,7.4,64,0.00,,,0.00,327.28,Weather logger V3.0.,2017-05-27 14:03:00,
2017-05-27 10:09:00,60.3,47.7,29.87,WNW,298,5.1,7.4,63,0.00,,,0.00,258.17,Weather logger V3.0.,2017-05-27 14:09:00,
2017-05-27 10:14:00,60.4,48.2,29.87,NNE,19,2.0,2.5,64,0.00,,,0.00,272.72,Weather logger V3.0.,2017-05-27 14:14:00,
2017-05-27 10:20:00,60.6,46.8,29.87,East,84,5.8,7.4,60,0.00,,,0.00,231.76,Weather logger V3.0.,2017-05-27 14:20:00,
2017-05-27 10:25:00,60.8,46.9,29.87,North,0,2.7,4.9,60,0.00,,,0.00,157.19,Weather logger V3.0.,2017-05-27 14:25:00,
2017-05-27 10:30:00,61.0,46.6,29.87,ENE,72,3.6,4.9,59,0.00,,,0.00,345.25,Weather logger V3.0.,2017-05-27 14:30:00,
2017-05-27 10:35:00,61.0,46.6,29.87,SW,224,1.1,2.5,59,0.00,,,0.00,344.92,Weather logger V3.0.,2017-05-27 14:35:00,
2017-05-27 10:40:00,61.2,46.2,29.87,SE,136,2.5,4.9,58,0.00,,,0.00,296.67,Weather logger V3.0.,2017-05-27 14:40:00,
2017-05-27 10:46:00,61.7,45.9,29.87,NE,34,2.7,4.9,56,0.00,,,0.00,253.21,Weather logger V3.0.,2017-05-27 14:46:00,
2017-05-27 10:51:00,61.9,47.5,29.88,NNE,31,2.0,2.5,59,0.00,,,0.00,221.03,Weather logger V3.0.,2017-05-27 14:51:00,
2017-05-27 10:56:00,62.2,48.2,29.87,North,359,5.6,7.4,60,0.00,,,0.00,206.86,Weather logger V3.0.,2017-05-27 14:56:00,
2017-05-27 11:01:00,62.2,48.2,29.87,NNE,25,3.6,4.9,60,0.00,,,0.00,202.31,Weather logger V3.0.,2017-05-27 15:01:00,
2017-05-27 11:06:00,62.2,48.2,29.87,WNW,299,2.9,4.9,60,0.00,,,0.00,674.28,Weather logger V3.0.,2017-05-27 15:06:00,
2017-05-27 11:12:00,62.4,47.5,29.88,NNE,14,11.9,15.0,58,0.00,,,0.00,257.48,Weather logger V3.0.,2017-05-27 15:12:00,
2017-05-27 11:17:00,62.4,48.0,29.87,WNW,302,6.7,7.4,59,0.00,,,0.00,257.51,Weather logger V3.0.,2017-05-27 15:17:00,
2017-05-27 11:22:00,62.1,47.1,29.87,SW,235,0.0,0.0,58,0.00,,,0.00,253.68,Weather logger V3.0.,2017-05-27 15:22:00,
2017-05-27 11:28:00,62.2,47.3,29.87,ENE,63,2.0,2.5,58,0.00,,,0.00,753.01,Weather logger V3.0.,2017-05-27 15:28:00,
2017-05-27 11:33:00,62.4,46.0,29.88,North,9,6.0,7.4,55,0.00,,,0.00,363.12,Weather logger V3.0.,2017-05-27 15:33:00,
2017-05-27 11:38:00,62.8,48.2,29.87,NNW,343,5.1,7.4,59,0.00,,,0.00,256.02,Weather logger V3.0.,2017-05-27 15:38:00,
2017-05-27 11:43:00,63.0,48.4,29.87,NNW,335,4.2,4.9,59,0.00,,,0.00,703.80,Weather logger V3.0.,2017-05-27 15:43:00,
2017-05-27 11:49:00,63.0,47.5,29.87,NE,34,0.2,2.5,57,0.00,,,0.00,334.00,Weather logger V3.0.,2017-05-27 15:49:00,
2017-05-27 11:55:00,63.3,47.5,29.88,North,350,5.1,7.4,56,0.00,,,0.00,266.89,Weather logger V3.0.,2017-05-27 15:55:00,
2017-05-27 12:00:00,63.5,47.5,29.87,NNE,14,4.5,7.4,56,0.00,,,0.00,321.53,Weather logger V3.0.,2017-05-27 16:00:00,
2017-05-27 12:06:00,63.9,47.5,29.87,NNW,335,0.0,0.0,55,0.00,,,0.00,758.67,Weather logger V3.0.,2017-05-27 16:06:00,
2017-05-27 12:11:00,64.4,46.4,29.87,NNE,22,0.2,2.5,52,0.00,,,0.00,796.18,Weather logger V3.0.,2017-05-27 16:11:00,
2017-05-27 12:16:00,64.8,46.8,29.87,East,101,0.4,2.5,52,0.00,,,0.00,813.49,Weather logger V3.0.,2017-05-27 16:16:00,
2017-05-27 12:22:00,65.3,47.3,29.87,North,8,5.8,7.4,52,0.00,,,0.00,262.57,Weather logger V3.0.,2017-05-27 16:22:00,
2017-05-27 12:27:00,65.5,48.4,29.87,NNE,29,4.0,4.9,54,0.00,,,0.00,770.27,Weather logger V3.0.,2017-05-27 16:27:00,
2017-05-27 12:32:00,65.7,48.2,29.86,WNW,285,3.6,4.9,53,0.00,,,0.00,762.37,Weather logger V3.0.,2017-05-27 16:32:00,
2017-05-27 12:38:00,66.0,47.5,29.87,SW,233,1.8,2.5,51,0.00,,,0.00,908.33,Weather logger V3.0.,2017-05-27 16:38:00,
2017-05-27 12:43:00,66.4,47.8,29.87,WNW,290,2.5,4.9,51,0.00,,,0.00,853.88,Weather logger V3.0.,2017-05-27 16:43:00,
2017-05-27 12:48:00,66.6,48.4,29.87,NNE,28,1.8,2.5,52,0.00,,,0.00,829.93,Weather logger V3.0.,2017-05-27 16:48:00,
2017-05-27 12:54:00,66.4,48.2,29.87,NNE,16,4.9,7.4,52,0.00,,,0.00,774.85,Weather logger V3.0.,2017-05-27 16:54:00,
2017-05-27 13:00:00,66.4,47.8,29.87,SE,134,0.0,0.0,51,0.00,,,0.00,798.66,Weather logger V3.0.,2017-05-27 17:00:00,
2017-05-27 13:05:00,67.1,47.3,29.88,ESE,103,4.0,4.9,49,0.00,,,0.00,828.32,Weather logger V3.0.,2017-05-27 17:05:00,
2017-05-27 13:10:00,67.5,48.2,29.87,NNE,28,5.1,7.4,50,0.00,,,0.00,429.07,Weather logger V3.0.,2017-05-27 17:10:00,
2017-05-27 13:15:00,67.3,48.6,29.88,ESE,105,2.9,4.9,51,0.00,,,0.00,353.22,Weather logger V3.0.,2017-05-27 17:15:00,
2017-05-27 13:20:00,67.3,48.0,29.87,SW,217,0.2,2.5,50,0.00,,,0.00,278.45,Weather logger V3.0.,2017-05-27 17:20:00,
2017-05-27 13:26:00,67.5,49.3,29.87,ESE,118,0.2,2.5,52,0.00,,,0.00,846.93,Weather logger V3.0.,2017-05-27 17:26:00,
2017-05-27 13:31:00,67.5,48.2,29.87,South,181,2.0,2.5,50,0.00,,,0.00,752.45,Weather logger V3.0.,2017-05-27 17:31:00,
2017-05-27 13:37:00,67.8,47.5,29.87,SSW,200,3.6,4.9,48,0.00,,,0.00,859.76,Weather logger V3.0.,2017-05-27 17:37:00,
2017-05-27 13:42:00,68.0,49.3,29.87,NNE,29,4.2,7.4,51,0.00,,,0.00,254.01,Weather logger V3.0.,2017-05-27 17:42:00,
2017-05-27 13:47:00,67.8,50.2,29.87,WSW,254,6.0,7.4,53,0.00,,,0.00,296.88,Weather logger V3.0.,2017-05-27 17:47:00,
2017-05-27 13:52:00,67.8,50.5,29.88,West,263,7.4,9.8,54,0.00,,,0.00,370.52,Weather logger V3.0.,2017-05-27 17:52:00,
2017-05-27 13:57:00,67.8,50.2,29.88,SSW,208,5.6,7.4,53,0.00,,,0.00,400.99,Weather logger V3.0.,2017-05-27 17:57:00,
2017-05-27 14:03:00,67.6,50.0,29.87,SW,215,6.0,7.4,53,0.00,,,0.00,944.20,Weather logger V3.0.,2017-05-27 18:03:00,
2017-05-27 14:08:00,67.8,49.1,29.87,ESE,115,0.2,2.5,51,0.00,,,0.00,341.59,Weather logger V3.0.,2017-05-27 18:08:00,
2017-05-27 14:13:00,67.8,46.9,29.88,NNE,19,6.0,7.4,47,0.00,,,0.00,898.31,Weather logger V3.0.,2017-05-27 18:13:00,
2017-05-27 14:19:00,67.8,47.5,29.87,East,80,7.2,9.8,48,0.00,,,0.00,412.28,Weather logger V3.0.,2017-05-27 18:19:00,
2017-05-27 14:24:00,68.0,48.7,29.88,North,7,4.0,4.9,50,0.00,,,0.00,307.35,Weather logger V3.0.,2017-05-27 18:24:00,
2017-05-27 14:29:00,68.2,48.9,29.87,NNE,28,1.1,2.5,50,0.00,,,0.00,324.97,Weather logger V3.0.,2017-05-27 18:29:00,
2017-05-27 14:34:00,68.5,48.2,29.87,East,85,2.5,4.9,48,0.00,,,0.00,324.71,Weather logger V3.0.,2017-05-27 18:34:00,
2017-05-27 14:39:00,68.7,49.5,29.87,East,85,4.9,4.9,50,0.00,,,0.00,340.20,Weather logger V3.0.,2017-05-27 18:39:00,
2017-05-27 14:44:00,68.7,49.5,29.88,SSE,148,1.1,2.5,50,0.00,,,0.00,426.57,Weather logger V3.0.,2017-05-27 18:44:00,
2017-05-27 14:49:00,68.4,49.1,29.87,SE,128,4.2,4.9,50,0.00,,,0.00,484.13,Weather logger V3.0.,2017-05-27 18:49:00,
2017-05-27 14:54:00,68.4,49.1,29.88,East,95,2.5,4.9,50,0.00,,,0.00,815.68,Weather logger V3.0.,2017-05-27 18:54:00,
2017-05-27 14:59:00,68.4,47.5,29.87,West,279,2.7,4.9,47,0.00,,,0.00,440.01,Weather logger V3.0.,2017-05-27 18:59:00,
2017-05-27 15:05:00,68.9,46.8,29.87,South,175,0.2,2.5,45,0.00,,,0.00,401.25,Weather logger V3.0.,2017-05-27 19:05:00,
2017-05-27 15:10:00,68.9,48.9,29.86,WNW,292,2.5,2.5,49,0.00,,,0.00,322.91,Weather logger V3.0.,2017-05-27 19:10:00,
2017-05-27 15:15:00,68.9,49.5,29.88,WSW,245,9.6,9.8,50,0.00,,,0.00,352.74,Weather logger V3.0.,2017-05-27 19:15:00,
2017-05-27 15:21:00,69.1,48.6,29.87,North,7,0.0,0.0,48,0.00,,,0.00,353.71,Weather logger V3.0.,2017-05-27 19:21:00,
2017-05-27 15:26:00,69.3,48.7,29.87,SSW,211,0.2,2.5,48,0.00,,,0.00,358.14,Weather logger V3.0.,2017-05-27 19:26:00,
2017-05-27 15:31:00,69.3,48.7,29.87,ESE,114,0.0,0.0,48,0.00,,,0.00,401.77,Weather logger V3.0.,2017-05-27 19:31:00,
2017-05-27 15:37:00,69.4,46.6,29.87,ENE,65,0.4,2.5,44,0.00,,,0.00,416.62,Weather logger V3.0.,2017-05-27 19:37:00,
2017-05-27 15:42:00,69.3,47.7,29.88,ESE,105,1.8,2.5,46,0.00,,,0.00,594.41,Weather logger V3.0.,2017-05-27 19:42:00,
2017-05-27 15:47:00,69.3,47.1,29.87,North,358,2.0,2.5,45,0.00,,,0.00,665.69,Weather logger V3.0.,2017-05-27 19:47:00,
2017-05-27 15:53:00,69.3,47.1,29.87,ESE,119,2.5,2.5,45,0.00,,,0.00,607.33,Weather logger V3.0.,2017-05-27 19:53:00,
2017-05-27 15:58:00,69.4,47.8,29.87,ESE,108,1.1,2.5,46,0.00,,,0.00,326.67,Weather logger V3.0.,2017-05-27 19:58:00,
2017-05-27 16:03:00,69.6,47.5,29.88,NW,317,2.5,2.5,45,0.00,,,0.00,350.46,Weather logger V3.0.,2017-05-27 20:03:00,
2017-05-27 16:09:00,69.8,48.2,29.87,West,265,0.0,0.0,46,0.00,,,0.00,723.96,Weather logger V3.0.,2017-05-27 20:09:00,
2017-05-27 16:14:00,70.0,47.1,29.87,NNW,334,2.7,4.9,44,0.00,,,0.00,358.55,Weather logger V3.0.,2017-05-27 20:14:00,
2017-05-27 16:19:00,70.2,47.8,29.87,West,281,3.4,4.9,45,0.00,,,0.00,299.92,Weather logger V3.0.,2017-05-27 20:19:00,
2017-05-27 16:24:00,70.0,48.9,29.87,WNW,295,1.1,2.5,47,0.00,,,0.00,260.10,Weather logger V3.0.,2017-05-27 20:24:00,
2017-05-27 16:29:00,70.0,48.9,29.88,WSW,240,3.4,4.9,47,0.00,,,0.00,254.27,Weather logger V3.0.,2017-05-27 20:29:00,
2017-05-27 16:34:00,69.8,47.5,29.87,West,280,1.8,2.5,45,0.00,,,0.00,302.05,Weather logger V3.0.,2017-05-27 20:34:00,
2017-05-27 16:39:00,69.8,47.5,29.87,NNW,334,2.0,2.5,45,0.00,,,0.00,388.99,Weather logger V3.0.,2017-05-27 20:39:00,
2017-05-27 16:45:00,70.0,48.4,29.87,WNW,290,3.6,4.9,46,0.00,,,0.00,387.67,Weather logger V3.0.,2017-05-27 20:45:00,
2017-05-27 16:50:00,70.0,50.0,29.87,West,267,4.9,7.4,49,0.00,,,0.00,234.39,Weather logger V3.0.,2017-05-27 20:50:00,
2017-05-27 16:55:00,69.8,49.8,29.87,WSW,254,2.5,4.9,49,0.00,,,0.00,229.23,Weather logger V3.0.,2017-05-27 20:55:00,
2017-05-27 17:00:00,69.6,49.1,29.87,WSW,253,2.9,4.9,48,0.00,,,0.00,238.43,Weather logger V3.0.,2017-05-27 21:00:00,
2017-05-27 17:05:00,69.6,49.1,29.88,West,277,4.2,4.9,48,0.00,,,0.00,223.85,Weather logger V3.0.,2017-05-27 21:05:00,
2017-05-27 17:10:00,69.6,50.2,29.87,West,280,3.4,4.9,50,0.00,,,0.00,319.36,Weather logger V3.0.,2017-05-27 21:10:00,
2017-05-27 17:15:00,69.6,49.1,29.87,West,265,1.8,2.5,48,0.00,,,0.00,293.46,Weather logger V3.0.,2017-05-27 21:15:00,
2017-05-27 17:21:00,69.6,48.6,29.87,WSW,252,1.8,2.5,47,0.00,,,0.00,324.80,Weather logger V3.0.,2017-05-27 21:21:00,
2017-05-27 17:26:00,69.4,46.6,29.87,SW,215,2.0,2.5,44,0.00,,,0.00,361.45,Weather logger V3.0.,2017-05-27 21:26:00,
2017-05-27 17:31:00,69.6,46.8,29.88,West,280,2.9,4.9,44,0.00,,,0.00,366.61,Weather logger V3.0.,2017-05-27 21:31:00,
2017-05-27 17:35:00,69.6,48.0,29.87,West,265,5.6,7.4,46,0.00,,,0.00,280.07,Weather logger V3.0.,2017-05-27 21:35:00,
2017-05-27 17:40:00,69.8,49.8,29.87,WSW,253,3.4,4.9,49,0.00,,,0.00,257.76,Weather logger V3.0.,2017-05-27 21:40:00,
2017-05-27 17:46:00,69.8,49.8,29.87,West,262,4.9,7.4,49,0.00,,,0.00,271.14,Weather logger V3.0.,2017-05-27 21:46:00,
2017-05-27 17:51:00,69.8,49.8,29.87,SW,227,2.5,2.5,49,0.00,,,0.00,253.29,Weather logger V3.0.,2017-05-27 21:51:00,
2017-05-27 17:57:00,69.8,50.4,29.88,SW,236,5.6,7.4,50,0.00,,,0.00,239.82,Weather logger V3.0.,2017-05-27 21:57:00,
2017-05-27 18:02:00,69.8,50.4,29.87,WSW,238,4.0,4.9,50,0.00,,,0.00,365.85,Weather logger V3.0.,2017-05-27 22:02:00,
2017-05-27 18:07:00,69.8,49.3,29.88,SW,214,2.5,4.9,48,0.00,,,0.00,316.26,Weather logger V3.0.,2017-05-27 22:07:00,
2017-05-27 18:13:00,69.8,50.4,29.88,South,176,2.5,2.5,50,0.00,,,0.00,192.47,Weather logger V3.0.,2017-05-27 22:13:00,
2017-05-27 18:18:00,69.6,50.2,29.88,East,101,1.8,2.5,50,0.00,,,0.00,153.09,Weather logger V3.0.,2017-05-27 22:18:00,
2017-05-27 18:23:00,69.3,54.0,29.88,SSE,150,6.0,7.4,58,0.00,,,0.00,104.28,Weather logger V3.0.,2017-05-27 22:23:00,
2017-05-27 18:29:00,68.9,54.5,29.88,East,98,6.0,7.4,60,0.00,,,0.00,87.59,Weather logger V3.0.,2017-05-27 22:29:00,
2017-05-27 18:34:00,68.4,54.5,29.89,SSE,150,5.1,7.4,61,0.00,,,0.00,78.98,Weather logger V3.0.,2017-05-27 22:34:00,
2017-05-27 18:39:00,67.8,54.9,29.89,SSE,165,3.6,4.9,63,0.00,,,0.00,70.60,Weather logger V3.0.,2017-05-27 22:39:00,
2017-05-27 18:44:00,67.3,54.3,29.88,SE,129,2.5,2.5,63,0.00,,,0.00,62.80,Weather logger V3.0.,2017-05-27 22:44:00,
2017-05-27 18:49:00,66.6,54.1,29.89,ESE,121,2.9,4.9,64,0.00,,,0.00,62.96,Weather logger V3.0.,2017-05-27 22:49:00,
2017-05-27 18:55:00,65.8,53.4,29.89,ESE,111,4.2,7.4,64,0.00,,,0.00,60.83,Weather logger V3.0.,2017-05-27 22:55:00,
2017-05-27 19:00:00,65.3,52.9,29.90,SE,132,3.4,4.9,64,0.00,,,0.00,62.09,Weather logger V3.0.,2017-05-27 23:00:00,